Weather History for Hawthorne, CA

Change the Weather History Date:

Friday, January 25, 2013

  Actual Average Record
Temperature  
Mean Temperature 63 °F -  
Max Temperature 66 °F 66 °F 86 °F (1951)
Min Temperature 60 °F 48 °F 36 °F (1947)
Degree Days  
Heating Degree Days 2    
Growing Degree Days 13 (Base 50)    
Moisture  
Dew Point 58 °F    
Average Humidity 84    
Maximum Humidity 94    
Minimum Humidity 70    
Precipitation  
Precipitation 0.16 in - - ()
Sea Level Pressure  
Sea Level Pressure 30.04 in    
Wind  
Wind Speed 1 mph (ENE)    
Max Wind Speed 8 mph    
Max Gust Speed -    
Visibility 9 miles    
Events Rain    
Averages and records for this station are not official NWS values.
T = Trace of Precipitation, MM = Missing Value Source: NWS Daily Summary

Daily Weather History Graph

Daily Weather History Graph

Search for Another Location

Airport:

Trip Planner

Search our weather history database for the weather conditions in past years. The results will help you decide how hot, cold, wet, or windy it might be!

Date:

Astronomy

Jan. 25, 2013 Rise Set
Actual Time 6:54 AM PST 5:17 PM PST
Civil Twilight 6:27 AM PST 5:44 PM PST
Nautical Twilight 5:57 AM PST 6:14 PM PST
Astronomical Twilight 5:27 AM PST 6:43 PM PST
Moon 4:18 PM PST (1/25) 5:36 AM PST (1/25)
Length of Visible Light 11h 16m
Length of Day
10h 23m
Waxing Gibbous, 98% of the Moon is Illuminated
Jan 25
Waxing Gibbous
Jan 26
Full
Feb 3
Last Quarter
Feb 9
New
Feb 17
First Quarter

Hourly Weather History & Observations

Time (PST) Temp. Dew Point Humidity Pressure Visibility Wind Dir Wind Speed Gust Speed Precip Events Conditions
12:53 AM 62.1 °F 55.9 °F 80% 30.11 in 10.0 mi Calm Calm - 0.00 in   Overcast
1:53 AM 61.0 °F 57.0 °F 87% 30.11 in 10.0 mi Calm Calm - 0.00 in   Mostly Cloudy
2:53 AM 61.0 °F 57.0 °F 87% 30.07 in 10.0 mi Calm Calm - N/A   Mostly Cloudy
3:53 AM 60.1 °F 55.9 °F 86% 30.05 in 10.0 mi Calm Calm - 0.01 in Rain Light Rain
4:53 AM 60.1 °F 57.0 °F 90% 30.07 in 10.0 mi Calm Calm - 0.01 in Rain Light Rain
5:53 AM 60.1 °F 57.0 °F 90% 30.06 in 8.0 mi Variable 4.6 mph - 0.05 in Rain Light Rain
6:53 AM 61.0 °F 55.9 °F 83% 30.08 in 10.0 mi Variable 4.6 mph - 0.01 in Rain Light Rain
7:53 AM 61.0 °F 55.9 °F 83% 30.09 in 10.0 mi ENE 8.1 mph - 0.01 in   Overcast
8:53 AM 61.0 °F 57.0 °F 87% 30.10 in 5.0 mi ENE 5.8 mph - 0.01 in Rain Light Rain
9:53 AM 62.1 °F 57.9 °F 86% 30.12 in 5.0 mi Calm Calm - 0.02 in Rain Light Rain
10:31 AM 62.6 °F 59.0 °F 88% 30.11 in 3.0 mi Calm Calm - 0.01 in Rain Light Rain
10:53 AM 63.0 °F 59.0 °F 87% 30.11 in 10.0 mi Calm Calm - 0.01 in   Overcast
11:03 AM 64.4 °F 59.0 °F 83% 30.11 in 10.0 mi Calm Calm - N/A   Overcast
11:53 AM 64.9 °F 57.9 °F 78% 30.08 in 10.0 mi Calm Calm - 0.00 in   Overcast
12:05 PM 66.2 °F 57.2 °F 73% 30.07 in 10.0 mi Calm Calm - N/A   Overcast
12:42 PM 66.2 °F 57.2 °F 73% 30.04 in 10.0 mi Calm Calm - N/A   Overcast
12:53 PM 66.0 °F 57.9 °F 75% 30.02 in 10.0 mi NE 4.6 mph - N/A   Overcast
1:53 PM 66.9 °F 57.0 °F 70% 30.01 in 10.0 mi Variable 3.5 mph - N/A   Overcast
2:53 PM 66.0 °F 57.9 °F 75% 30.01 in 8.0 mi ESE 5.8 mph - 0.00 in Rain Light Rain
3:53 PM 64.9 °F 59.0 °F 81% 29.99 in 10.0 mi Calm Calm - 0.01 in Rain Light Rain
4:46 PM 62.6 °F 60.8 °F 94% 29.98 in 10.0 mi West 3.5 mph - 0.00 in   Overcast
4:53 PM 63.0 °F 60.1 °F 90% 29.97 in 10.0 mi Calm Calm - 0.00 in   Overcast
5:53 PM 64.0 °F 59.0 °F 84% 29.99 in 10.0 mi Calm Calm - N/A   Overcast
6:53 PM 62.1 °F 57.9 °F 86% 29.99 in 10.0 mi Calm Calm - 0.02 in Rain Light Rain
7:53 PM 60.1 °F 57.9 °F 93% 29.98 in 10.0 mi Calm Calm - 0.00 in   Overcast
8:53 PM 60.1 °F 57.0 °F 90% 29.98 in 10.0 mi Calm Calm - N/A   Overcast
9:53 PM 61.0 °F 57.0 °F 87% 29.97 in 10.0 mi Calm Calm - N/A   Overcast
10:53 PM 61.0 °F 57.0 °F 87% 29.98 in 10.0 mi Calm Calm - 0.00 in   Overcast
11:53 PM 60.1 °F 57.0 °F 90% 29.96 in 10.0 mi Calm Calm - N/A   Overcast